INTELSAT 702 (IS-702)

Last updated on Nov. 12, 2016, 1:19 a.m. UTC

1 23124U 94034A   16316.72501995 -.00000160  00000-0  00000+0 0  9994
2 23124   4.1233  66.2790 0004784 216.1796 143.6491  0.98937797 96239
UTC
Height (km)
Latitude
Longitude
Inclination
Orbital Period
UTC large
Height (km)
Speed (km/s)
/
Latitude / Longitude
Inclination (degrees)
Orbital Period (minutes)
Azimuth
Elevation
Range (km)
Doppler Factor
iOS Compass Heading
iOS Angle

Next 30 passes for location: Hong Kong

Rise time Rise Azimuth (degrees) Set time Set Azimuth (degrees) Duration Max altitude (degrees)

No matching passes for this satellites